FW7508 Weather Reports


time (UTC)temp
F
wind
direction
speed
knots
gust
knots
rain 1hr
in
rain 24hr
in
rain mn
in
humidity
%
barometer
mb
20260507203345 51 291 0.0 0.9 0.00 0.00 0.00 43 1015.2
20260507202840 52 273 0.9 0.9 0.00 0.00 0.00 44 1015.2
20260507202337 51 292 1.7 1.7 0.00 0.00 0.00 43 1015.3
20260507201833 50 283 1.7 1.7 0.00 0.00 0.00 44 1015.4
20260507201328 50 285 0.9 0.9 0.00 0.00 0.00 44 1015.6
20260507200825 51 301 2.6 2.6 0.00 0.00 0.00 43 1015.9
20260507200321 50 263 1.7 1.7 0.00 0.00 0.00 45 1015.9
20260507195817 50 285 1.7 1.7 0.00 0.00 0.00 44 1015.9
20260507195315 50 284 0.0 0.0 0.00 0.00 0.00 46 1015.9
20260507194812 50 278 2.6 2.6 0.00 0.00 0.00 46 1015.9
20260507194308 50 259 2.6 2.6 0.00 0.00 0.00 45 1015.9
20260507193804 49 292 1.7 1.7 0.00 0.00 0.00 46 1016.0
20260507193301 49 279 2.6 2.6 0.00 0.00 0.00 47 1016.2
20260507192757 50 253 2.6 4.3 0.00 0.00 0.00 46 1016.2
20260507192249 50 270 1.7 1.7 0.00 0.00 0.00 46 1016.3
20260507191745 49 292 2.6 2.6 0.00 0.00 0.00 49 1016.2
20260507191241 49 264 0.9 1.7 0.00 0.00 0.00 49 1016.5
20260507190738 49 259 0.0 0.9 0.00 0.00 0.00 49 1016.5
20260507190237 48 270 2.6 2.6 0.00 0.00 0.00 48 1016.7
20260507185735 50 255 1.7 2.6 0.00 0.00 0.00 47 1016.7
20260507185231 49 269 1.7 1.7 0.00 0.00 0.00 50 1016.6
20260507184729 49 275 2.6 4.3 0.00 0.00 0.00 49 1016.6
20260507184227 49 260 1.7 1.7 0.00 0.00 0.00 51 1016.5
20260507183723 49 267 1.7 1.7 0.00 0.00 0.00 50 1016.3
20260507183220 49 275 1.7 1.7 0.00 0.00 0.00 51 1016.6
20260507182717 48 262 0.9 1.7 0.00 0.00 0.00 51 1016.5
20260507182212 48 274 4.3 5.2 0.00 0.00 0.00 47 1016.3
20260507181710 48 264 0.9 0.9 0.00 0.00 0.00 54 1016.6
20260507181206 48 273 1.7 1.7 0.00 0.00 0.00 51 1016.7
20260507180702 49 238 2.6 2.6 0.00 0.00 0.00 49 1016.2
20260507180200 49 273 3.5 5.2 0.00 0.00 0.00 49 1016.2
20260507175655 50 284 0.9 0.9 0.00 0.00 0.00 45 1016.6
20260507175153 50 284 0.9 1.7 0.00 0.00 0.00 47 1016.6
20260507174650 49 255 1.7 1.7 0.00 0.00 0.00 49 1016.6
20260507174148 48 284 0.0 0.0 0.00 0.00 0.00 47 1016.6
20260507173645 48 286 0.0 0.9 0.00 0.00 0.00 49 1016.7
20260507173141 48 263 0.0 0.9 0.00 0.00 0.00 47 1016.7
20260507172638 49 277 2.6 4.3 0.00 0.00 0.00 47 1016.8
20260507172135 48 273 1.7 1.7 0.00 0.00 0.00 48 1017.0
20260507171629 48 253 0.9 0.9 0.00 0.00 0.00 47 1017.1
20260507171127 48 277 0.9 0.9 0.00 0.00 0.00 48 1017.1
20260507170624 48 290 0.9 1.7 0.00 0.00 0.00 48 1017.2
20260507170121 48 298 1.7 1.7 0.00 0.00 0.00 48 1017.3
20260507165616 48 281 1.7 1.7 0.00 0.00 0.00 49 1017.1
20260507165113 48 294 0.9 1.7 0.00 0.00 0.00 49 1017.4
20260507164609 47 281 1.7 1.7 0.00 0.00 0.00 51 1017.3
20260507164106 48 280 0.9 0.9 0.00 0.00 0.00 52 1017.4
20260507163603 47 294 0.0 0.0 0.00 0.00 0.00 53 1017.6
20260507163101 48 271 3.5 5.2 0.00 0.00 0.00 50 1017.5
20260507162556 48 260 1.7 1.7 0.00 0.00 0.00 51 1017.7
20260507162053 47 44 2.6 2.6 0.00 0.00 0.00 54 1017.5
20260507161549 47 281 0.9 1.7 0.00 0.00 0.00 53 1017.8
20260507161046 47 283 0.9 0.9 0.00 0.00 0.00 56 1017.7
20260507160542 46 317 2.6 2.6 0.00 0.00 0.00 58 1017.6
20260507160039 47 278 2.6 2.6 0.00 0.00 0.00 61 1018.0
20260507155534 47 307 1.7 1.7 0.00 0.00 0.00 59 1017.9
20260507155032 46 261 1.7 1.7 0.00 0.00 0.00 58 1017.8
20260507154528 47 277 2.6 4.3 0.00 0.00 0.00 62 1017.8
20260507154025 48 0 4.3 5.2 0.00 0.00 0.00 57 1017.8
20260507153522 48 317 2.6 2.6 0.00 0.00 0.00 61 1018.1
20260507153018 47 240 1.7 2.6 0.00 0.00 0.00 63 1018.0
20260507152514 46 263 1.7 2.6 0.00 0.00 0.00 64 1018.0
20260507152011 47 339 4.3 5.2 0.00 0.00 0.00 65 1018.0
20260507151507 46 282 1.7 1.7 0.00 0.00 0.00 66 1018.0
20260507151004 46 241 3.5 6.1 0.00 0.00 0.00 65 1017.9
20260507150501 46 276 2.6 4.3 0.00 0.00 0.00 67 1017.9
20260507145957 46 245 3.5 5.2 0.00 0.00 0.00 65 1017.9
20260507145453 47 268 2.6 2.6 0.00 0.00 0.00 65 1017.7
20260507144950 47 273 1.7 1.7 0.00 0.00 0.00 65 1017.8
20260507144447 46 278 1.7 2.6 0.00 0.00 0.00 66 1017.7
20260507143944 46 330 1.7 1.7 0.00 0.00 0.00 67 1017.9
20260507143442 45 302 0.9 1.7 0.00 0.00 0.00 69 1017.6
20260507142938 45 333 1.7 2.6 0.00 0.00 0.00 71 1017.7
20260507142434 45 252 2.6 2.6 0.00 0.00 0.00 70 1018.1
20260507141931 45 282 2.6 2.6 0.00 0.00 0.00 70 1017.8
20260507141427 46 259 2.6 2.6 0.00 0.00 0.00 69 1017.9
20260507140924 45 325 0.9 1.7 0.00 0.00 0.00 70 1017.8
20260507140420 45 280 0.9 1.7 0.00 0.00 0.00 71 1017.8
20260507135918 44 333 3.5 4.3 0.00 0.00 0.00 71 1017.8
20260507135414 45 235 2.6 4.3 0.00 0.00 0.00 71 1017.9
20260507134912 44 323 1.7 1.7 0.00 0.00 0.00 73 1017.9
20260507134408 45 322 3.5 4.3 0.00 0.00 0.00 71 1017.9
20260507133904 44 278 3.5 5.2 0.00 0.00 0.00 72 1017.6
20260507133400 44 275 2.6 5.2 0.00 0.00 0.00 71 1017.5
20260507132859 45 280 2.6 2.6 0.00 0.00 0.00 71 1017.7
20260507132355 44 304 2.6 2.6 0.00 0.00 0.00 70 1017.9
20260507131852 45 266 3.5 4.3 0.00 0.00 0.00 69 1017.6
20260507131349 45 303 2.6 4.3 0.00 0.00 0.00 69 1017.6
20260507130846 45 313 0.9 0.9 0.00 0.00 0.00 70 1017.5
20260507130343 45 273 2.6 5.2 0.00 0.00 0.00 70 1017.4
20260507125842 44 357 0.9 1.7 0.00 0.00 0.00 71 1017.6
20260507125338 45 297 1.7 1.7 0.00 0.00 0.00 70 1017.5
20260507124836 44 277 0.9 0.9 0.00 0.00 0.00 70 1017.2
20260507124332 44 301 0.9 0.9 0.00 0.00 0.00 71 1017.2
20260507123831 44 305 1.7 2.6 0.00 0.00 0.00 71 1017.0
20260507123328 44 271 2.6 2.6 0.00 0.00 0.00 71 1017.3
20260507122824 44 290 0.9 1.7 0.00 0.00 0.00 71 1017.2
20260507122319 44 290 1.7 2.6 0.00 0.00 0.00 72 1017.2
20260507121816 44 284 0.9 0.9 0.00 0.00 0.00 71 1017.2
20260507121312 43 281 0.9 0.9 0.00 0.00 0.00 72 1017.1
20260507120808 43 249 2.6 2.6 0.00 0.00 0.00 72 1017.1
20260507120305 43 309 1.7 1.7 0.00 0.00 0.00 73 1017.2
20260507115801 43 295 0.0 0.9 0.00 0.00 0.00 74 1017.2
20260507115257 42 282 2.6 2.6 0.00 0.00 0.00 74 1017.0
20260507114753 42 289 1.7 2.6 0.00 0.00 0.00 75 1017.1
20260507114250 42 282 1.7 1.7 0.00 0.00 0.00 75 1016.8
20260507113748 42 281 0.9 1.7 0.00 0.00 0.00 75 1016.9
20260507113244 42 289 1.7 1.7 0.00 0.00 0.00 76 1016.9
20260507112742 41 290 0.9 0.9 0.00 0.00 0.00 77 1016.9
20260507112238 41 287 0.0 0.9 0.00 0.00 0.00 76 1017.0
20260507111736 41 288 0.9 1.7 0.00 0.00 0.00 76 1016.9
20260507111232 41 285 0.9 0.9 0.00 0.00 0.00 77 1016.8
20260507110728 41 284 0.9 1.7 0.00 0.00 0.00 78 1016.5
20260507110226 41 284 0.9 0.9 0.00 0.00 0.00 78 1016.6
20260507105722 40 284 1.7 1.7 0.00 0.00 0.00 79 1016.7
20260507105218 40 278 0.9 0.9 0.00 0.00 0.00 80 1016.6
20260507104716 40 287 0.0 0.9 0.00 0.00 0.00 80 1016.5
20260507104212 39 284 0.9 0.9 0.00 0.00 0.00 82 1016.5
20260507103708 39 284 0.0 0.9 0.00 0.00 0.00 83 1016.1
20260507103205 39 288 0.0 0.0 0.00 0.00 0.00 83 1016.5
20260507102701 39 284 0.0 0.9 0.00 0.00 0.00 83 1016.5
20260507102158 39 290 0.0 0.0 0.00 0.00 0.00 82 1016.2
20260507101654 39 291 0.0 0.0 0.00 0.00 0.00 81 1016.2
20260507101149 40 290 0.0 0.0 0.00 0.00 0.00 81 1016.2
20260507100647 40 333 0.0 0.0 0.00 0.00 0.00 80 1016.1
20260507100145 40 290 0.0 0.0 0.00 0.00 0.00 79 1016.2
20260507095643 40 283 0.0 0.0 0.00 0.00 0.00 78 1016.1
20260507095139 41 284 0.0 0.0 0.00 0.00 0.00 77 1016.0
20260507094636 41 284 0.0 0.0 0.00 0.00 0.00 77 1016.2
20260507094132 41 316 0.9 0.9 0.00 0.00 0.00 77 1016.1
20260507093630 41 278 0.9 0.9 0.00 0.00 0.00 76 1016.2
20260507093129 41 292 0.9 0.9 0.00 0.00 0.00 75 1016.1
20260507092625 41 293 0.9 0.9 0.00 0.00 0.00 74 1016.2
20260507092121 41 289 0.0 0.0 0.00 0.00 0.00 73 1016.1
20260507091618 42 293 0.0 0.9 0.00 0.00 0.00 72 1016.0
20260507091108 41 291 0.0 0.9 0.00 0.00 0.00 74 1016.1
20260507090604 41 278 0.9 1.7 0.00 0.00 0.00 74 1016.1
20260507085558 42 311 0.9 0.9 0.00 0.00 0.00 73 1016.3
20260507085054 42 286 0.0 0.9 0.00 0.00 0.00 73 1016.2
20260507084552 43 301 0.9 0.9 0.00 0.00 0.00 72 1016.5
20260507084049 43 292 0.0 0.0 0.00 0.00 0.00 72 1016.6
20260507083545 43 296 0.9 0.9 0.00 0.00 0.00 72 1016.6
20260507083042 43 284 0.9 0.9 0.00 0.00 0.00 72 1016.5
20260507082538 43 293 0.0 0.0 0.00 0.00 0.00 72 1016.6
20260507082035 43 291 0.9 0.9 0.00 0.00 0.00 72 1016.2
20260507081531 43 292 0.9 1.7 0.00 0.00 0.00 71 1016.5
20260507081028 43 296 0.9 0.9 0.00 0.00 0.00 71 1016.8
20260507080524 43 285 0.9 1.7 0.00 0.00 0.00 70 1016.8
20260507080021 43 280 0.9 0.9 0.00 0.00 0.00 70 1016.5
20260507075516 43 267 1.7 1.7 0.00 0.00 0.00 70 1016.6
20260507075012 43 304 0.9 0.9 0.00 0.00 0.00 70 1016.7
20260507074509 43 285 0.0 0.0 0.00 0.00 0.00 70 1016.7
20260507074008 43 279 1.7 1.7 0.00 0.00 0.00 70 1016.8
20260507073503 43 293 0.0 0.9 0.00 0.00 0.00 70 1016.6
20260507073000 43 292 0.0 0.0 0.00 0.00 0.00 70 1016.8
20260507072458 43 276 0.9 0.9 0.00 0.00 0.00 70 1016.6
20260507071954 43 286 0.0 0.9 0.00 0.00 0.00 71 1016.7
20260507071452 43 7 3.5 6.1 0.00 0.00 0.00 70 1016.8
20260507070948 43 290 0.9 0.9 0.00 0.00 0.00 70 1016.6
20260507070446 43 306 0.0 0.0 0.00 0.00 0.00 69 1016.6
20260507065942 44 264 0.9 1.7 0.00 0.00 0.00 69 1016.6
20260507065439 44 242 1.7 2.6 0.00 0.00 0.00 69 1016.5
20260507064936 44 297 0.0 0.0 0.00 0.00 0.00 68 1016.8
20260507064435 44 293 0.9 0.9 0.00 0.00 0.00 69 1016.8
20260507063932 44 299 0.0 0.0 0.00 0.00 0.00 68 1016.9
20260507063429 44 282 2.6 2.6 0.00 0.00 0.00 67 1016.9
20260507062926 44 298 0.9 0.9 0.00 0.00 0.00 67 1016.9
20260507062423 44 316 0.0 0.9 0.00 0.00 0.00 67 1017.1
20260507061921 44 288 1.7 2.6 0.00 0.00 0.00 67 1016.9
20260507061418 44 285 1.7 2.6 0.00 0.00 0.00 67 1016.9
20260507060917 44 303 0.0 0.0 0.00 0.00 0.00 68 1017.0
20260507060413 44 258 1.7 1.7 0.00 0.00 0.00 69 1016.8
20260507055910 44 269 0.9 0.9 0.00 0.00 0.00 68 1017.0
20260507055404 44 308 0.0 0.9 0.00 0.00 0.00 68 1016.9
20260507054902 44 284 0.9 1.7 0.00 0.00 0.00 68 1016.9
20260507054358 45 310 1.7 1.7 0.00 0.00 0.00 67 1016.9
20260507053855 45 276 0.9 1.7 0.00 0.00 0.00 68 1017.0
20260507053353 45 300 0.9 0.9 0.00 0.00 0.00 68 1017.1
20260507052852 45 354 2.6 2.6 0.00 0.00 0.00 68 1016.8
20260507052348 45 278 0.9 0.9 0.00 0.00 0.00 68 1017.1
20260507051845 46 297 0.0 0.9 0.00 0.00 0.00 67 1017.1
20260507051343 46 283 3.5 5.2 0.00 0.00 0.00 66 1017.0
20260507050839 46 330 0.9 2.6 0.00 0.00 0.00 67 1017.2
20260507050336 46 289 2.6 2.6 0.00 0.00 0.00 66 1016.8
20260507045833 46 290 1.7 2.6 0.00 0.00 0.00 68 1017.0
20260507045329 46 277 0.9 1.7 0.00 0.00 0.00 67 1017.0
20260507044827 46 356 0.0 0.9 0.00 0.00 0.00 69 1017.0
20260507044323 46 6 2.6 4.3 0.00 0.00 0.00 69 1016.7
20260507043819 46 271 0.9 0.9 0.00 0.00 0.00 69 1017.0
20260507043316 46 282 0.0 0.9 0.00 0.00 0.00 70 1016.8
20260507042812 46 284 0.9 0.9 0.00 0.00 0.00 69 1016.8
20260507042308 46 286 1.7 2.6 0.00 0.00 0.00 67 1016.9
20260507041805 46 287 0.9 0.9 0.00 0.00 0.00 67 1016.6
20260507041302 46 287 0.0 0.0 0.00 0.00 0.00 67 1016.8
20260507040759 46 288 0.9 0.9 0.00 0.00 0.00 66 1016.6
20260507040255 46 287 0.0 0.0 0.00 0.00 0.00 67 1016.9
20260507035751 46 285 0.9 0.9 0.00 0.00 0.00 67 1016.9
20260507035246 46 292 0.0 0.9 0.00 0.00 0.00 66 1016.9
20260507034744 46 313 1.7 1.7 0.00 0.00 0.00 65 1016.8
20260507034241 46 289 0.9 0.9 0.00 0.00 0.00 65 1016.6
20260507033739 47 288 0.0 0.0 0.00 0.00 0.00 64 1016.7
20260507033236 46 302 0.9 1.7 0.00 0.00 0.00 64 1016.8
20260507032734 47 288 0.0 0.9 0.00 0.00 0.00 63 1016.8
20260507032230 46 287 1.7 1.7 0.00 0.00 0.00 64 1016.7
20260507031726 46 286 0.0 0.0 0.00 0.00 0.00 65 1016.6
20260507031223 46 287 0.0 0.0 0.00 0.00 0.00 65 1016.8
20260507030720 46 287 0.0 0.0 0.00 0.00 0.00 65 1016.8
20260507030218 46 287 0.0 0.0 0.00 0.00 0.00 65 1016.7
20260507025714 46 287 0.0 0.0 0.00 0.00 0.00 65 1016.8
20260507025212 46 287 0.0 0.0 0.00 0.00 0.00 63 1016.8
20260507024710 46 276 0.9 0.9 0.00 0.00 0.00 62 1016.9
20260507024207 47 288 0.9 0.9 0.00 0.00 0.00 60 1016.8
20260507023702 47 285 0.0 0.9 0.00 0.00 0.00 59 1016.8
20260507023159 47 289 0.9 0.9 0.00 0.00 0.00 59 1016.8
20260507022656 47 290 0.0 0.0 0.00 0.00 0.00 58 1016.9
20260507022152 47 285 0.0 0.9 0.00 0.00 0.00 58 1016.7
20260507021649 47 285 0.0 0.0 0.00 0.00 0.00 57 1016.7
20260507021144 48 286 0.0 0.9 0.00 0.00 0.00 57 1016.6
20260507020643 48 268 1.7 1.7 0.00 0.00 0.00 56 1016.3
20260507020138 48 286 0.0 0.0 0.00 0.00 0.00 56 1016.7
20260507015637 48 287 0.9 0.9 0.00 0.00 0.00 56 1016.7
20260507015134 48 285 0.0 0.9 0.00 0.00 0.00 57 1016.7
20260507014630 48 284 0.9 0.9 0.00 0.00 0.00 56 1016.5
20260507014126 48 289 0.9 0.9 0.00 0.00 0.00 57 1016.6
20260507013623 48 288 0.0 0.0 0.00 0.00 0.00 57 1016.6
20260507013120 48 287 0.0 0.0 0.00 0.00 0.00 58 1016.5
20260507012618 48 289 0.0 0.0 0.00 0.00 0.00 58 1016.5
20260507012113 48 289 0.0 0.0 0.00 0.00 0.00 57 1016.5
20260507011611 48 284 0.0 0.0 0.00 0.00 0.00 56 1016.5
20260507011107 48 289 0.0 0.0 0.00 0.00 0.00 56 1016.2
20260507010602 48 287 0.0 0.0 0.00 0.00 0.00 55 1016.0
20260507010058 48 281 0.9 0.9 0.00 0.00 0.00 55 1016.3
20260507005556 48 285 0.0 0.0 0.00 0.00 0.00 54 1016.2
20260507005052 48 283 0.0 0.0 0.00 0.00 0.00 54 1016.3
20260507004549 48 283 0.0 0.0 0.00 0.00 0.00 53 1016.1
20260507004046 48 286 0.0 0.9 0.00 0.00 0.00 53 1016.0
20260507003542 48 287 0.0 0.0 0.00 0.00 0.00 52 1016.1
20260507003037 48 287 0.0 0.0 0.00 0.00 0.00 52 1016.1
20260507002534 48 289 0.0 0.0 0.00 0.00 0.00 52 1016.0
20260507002030 48 281 0.0 0.0 0.00 0.00 0.00 52 1016.2
20260507001527 48 280 0.0 0.0 0.00 0.00 0.00 51 1016.0
20260507001025 49 288 0.0 0.0 0.00 0.00 0.00 51 1016.1
20260507000520 49 273 0.9 0.9 0.00 0.00 0.00 51 1016.0
20260507000016 49 282 0.0 0.0 0.00 0.00 0.00 50 1015.9
20260506235514 49 284 0.0 0.0 0.00 0.00 0.00 50 1015.9
20260506235009 49 285 0.0 0.0 0.00 0.00 0.00 48 1016.0
20260506234507 49 287 0.9 0.9 0.00 0.00 0.00 49 1016.0
20260506234004 49 277 0.9 0.9 0.00 0.00 0.00 48 1016.1
20260506233501 49 286 0.9 0.9 0.00 0.00 0.00 47 1016.0
20260506232957 49 288 0.9 0.9 0.00 0.00 0.00 48 1016.0
20260506232454 49 285 0.9 0.9 0.00 0.00 0.00 47 1016.1
20260506231949 49 294 0.9 0.9 0.00 0.00 0.00 47 1016.3
20260506231446 50 284 0.9 0.9 0.00 0.00 0.00 47 1016.2
20260506230938 50 286 0.9 0.9 0.00 0.00 0.00 47 1016.1
20260506230434 50 290 0.0 0.0 0.00 0.00 0.00 47 1016.2
20260506225931 50 272 0.9 1.7 0.00 0.00 0.00 49 1016.3
20260506225429 50 289 0.9 0.9 0.00 0.00 0.00 48 1016.1
20260506224926 50 206 0.9 4.3 0.00 0.00 0.00 47 1016.2
20260506224423 50 291 0.9 0.9 0.00 0.00 0.00 47 1016.0
20260506223919 50 290 0.0 0.9 0.00 0.00 0.00 46 1016.2
20260506223415 50 285 0.0 0.0 0.00 0.00 0.00 47 1016.1
20260506222912 50 281 0.9 0.9 0.00 0.00 0.00 44 1016.3
20260506222409 51 276 0.9 1.7 0.00 0.00 0.00 44 1016.2
20260506221906 51 288 1.7 1.7 0.00 0.00 0.00 45 1016.2
20260506221402 50 278 0.9 0.9 0.00 0.00 0.00 46 1016.2
20260506220900 50 279 1.7 1.7 0.00 0.00 0.00 45 1016.2
20260506220355 50 282 0.9 0.9 0.00 0.00 0.00 45 1016.2
20260506215852 50 278 0.9 1.7 0.00 0.00 0.00 45 1016.1
20260506215348 51 272 0.9 1.7 0.00 0.00 0.00 44 1016.0
20260506214844 52 289 1.7 1.7 0.00 0.00 0.00 41 1015.9
20260506214341 52 288 1.7 1.7 0.00 0.00 0.00 42 1016.0
20260506213839 52 290 2.6 2.6 0.00 0.00 0.00 41 1015.9
20260506213336 53 266 1.7 1.7 0.00 0.00 0.00 41 1016.1
20260506212833 53 282 1.7 1.7 0.00 0.00 0.00 39 1016.1
20260506212329 53 286 1.7 2.6 0.00 0.00 0.00 41 1016.0
20260506211824 54 283 2.6 2.6 0.00 0.00 0.00 40 1016.0
20260506211320 54 270 3.5 4.3 0.00 0.00 0.00 38 1016.0
20260506210818 53 275 3.5 4.3 0.00 0.00 0.00 40 1016.0
20260506210315 55 277 1.7 4.3 0.00 0.00 0.00 38 1016.1
20260506205812 54 275 0.9 0.9 0.00 0.00 0.00 40 1016.1
20260506205308 54 289 0.9 1.7 0.00 0.00 0.00 40 1016.1
20260506204804 54 273 2.6 2.6 0.00 0.00 0.00 40 1016.1
20260506204303 54 248 1.7 2.6 0.00 0.00 0.00 40 1016.0
20260506203800 54 274 1.7 1.7 0.00 0.00 0.00 39 1016.2